Regional Weather Roundup
Issued by NWS

Home | Current Version | Previous Version | Text Only | Print | Product List | Glossary Off
Versions: 1 2 3 4 5 6 7 8 9 10 11 12 13 14 15 16 17 18 19 20 21 22 23 24 25 26 27 28 29 30 31 32 33 34 35 36 37 38 39 40 41 42 43 44 45 46 47 48 49 50

000
ASUS43 KMPX 070201
RWRMN
WEATHER ROUNDUP FOR MINNESOTA
NATIONAL WEATHER SERVICE TWIN CITIES/CHANHASSEN MN
900 PM CDT WED MAY 06 2015


NOTE: "FAIR" INDICATES FEW OR NO CLOUDS BELOW 12,000 FEET WITH NO
SIGNIFICANT WEATHER AND/OR OBSTRUCTIONS TO VISIBILITY. N/A MEANS
CURRENT SKY AND/OR WEATHER CONDITIONS ARE NOT AVAILABLE.

MNZ060>063-068>070-070300-
   Twin Cities Metro

CITY           SKY/WX    TMP DP  RH WIND       PRES   REMARKS
TWIN CITIES    MOCLDY    68  60  75 SE10      29.86S
ST PAUL        CLOUDY    66  61  84 SE14      29.87S
CRYSTAL        MOCLDY    69  60  73 SE13G21   29.84S
BLAINE         MOCLDY    70  61  73 SE12G17   29.86S
LAKEVILLE      MOCLDY    64  61  88 SE9       29.86S
EDEN PRAIRIE   MOCLDY    68  61  78 SE12G22   29.84R
SOUTH ST PAUL  MOCLDY    67  61  81 SE8       29.87S
LAKE ELMO      CLOUDY    64  61  88 SE9       29.89S
$$
MNZ001>005-007-008-013>017-022>024-027-028-070300-
   Northwest Minnesota

CITY           SKY/WX    TMP DP  RH WIND       PRES   REMARKS
BEMIDJI        CLOUDY    63  55  76 SE13      29.79F
HALLOCK        CLOUDY    63  59  88 E12       29.72F
ROSEAU         LGT RAIN  61  55  82 E7        29.78S
WARROAD        CLOUDY    55  52  88 E9        29.79F
THIEF RVR FALL CLOUDY    61  55  82 E15       29.73F
CROOKSTON      CLOUDY    63  57  82 SE13      29.69F
FOSSTON        MOCLDY    63  55  77 SE16G26   29.74S
DETROIT LAKES  CLOUDY    63  59  88 SE13      29.74F
MOORHEAD       CLOUDY    64  61  88 SE12      29.68S
PARK RAPIDS    CLOUDY    63  59  87 SE13      29.77F
MAHNOMEN       CLOUDY    63  58  85 SE14G23   29.72S
$$
MNZ006-009>011-018-025>026-070300-
   North Central Minnesota

CITY           SKY/WX    TMP DP  RH WIND       PRES   REMARKS
BAUDETTE       CLOUDY    61  57  87 SE12      29.81F
FLAG ISLAND    LGT RAIN  59  57  94 E8        29.79F
INTL FALLS     CLOUDY    63  54  72 SE10      29.85S
WASKISH        CLOUDY    61  55  82 E9        29.81F
BIG FORK       LGT RAIN  61  54  77 SE7       29.86R
LONGVILLE      CLOUDY    59  57  94 E5        29.83F
GRAND RAPIDS   CLOUDY    61  54  77 SE7       29.88R
CRANE LAKE     CLOUDY    61  54  77 CALM      29.91S
COOK           CLOUDY    59  54  82 E7        29.90S
WALKER         CLOUDY    60  57  89 SE7       29.80F
$$
MNZ012-019>021-037-070300-
   Northeast Minnesota

CITY           SKY/WX    TMP DP  RH WIND       PRES   REMARKS
DULUTH         CLOUDY    57  43  59 E18       29.93S
ELY            CLOUDY    57  48  72 E7        29.94S
HIBBING        CLOUDY    59  52  77 SE9       29.89S
EVELETH        LGT RAIN  57  50  77 E7        29.92S
DULUTH HARBOR  CLOUDY    43  37  81 E12       29.96R
TWO HARBORS    CLOUDY    57  37  47 NE10      29.93F
SILVER BAY     CLOUDY    55  27  33 NE8       29.96S
GRAND MARAIS     N/A     44  35  70 NE5       29.99F
G MARAIS ARPRT MOCLDY    57  36  44 E6        30.02S
$$
MNZ029>031-032-039>041-046>048-054>057-064-070300-
   West Central Minnesota

CITY           SKY/WX    TMP DP  RH WIND       PRES   REMARKS
FERGUS FALLS   MOCLDY    66  63  88 SE16G25   29.72S
WHEATON        MOCLDY    63  59  88 SE13      29.71R
MORRIS         MOCLDY    66  61  82 S13       29.73R
ALEXANDRIA     CLOUDY    65  60  84 S14       29.77S
ELBOW LAKE     FAIR      64  60  87 S20G25    29.72S
WADENA         LGT RAIN  63  61  94 SE16      29.75F
GLENWOOD       CLOUDY    64  61  88 S8        29.78R
APPLETON       PTCLDY    68  59  73 S13G18    29.73S
BENSON         MOCLDY    66  55  68 S12       29.75R
ORTONVILLE     PTCLDY    66  57  72 S14       29.71S
MADISON        MOCLDY    66  57  72 S15G22    29.72S
WILLMAR        FAIR      68  59  73 S13       29.79S
$$
MNZ033>034-036-042>043-049>051-058-059-070300-
   Central Minnesota

CITY           SKY/WX    TMP DP  RH WIND       PRES   REMARKS
ST CLOUD       MOCLDY    67  61  81 SE14      29.81S
SAUK CENTRE    CLOUDY    66  62  89 SE13      29.79R
PAYNESVILLE    CLOUDY    66  58  76 SE9G17    29.80S
AITKIN         MOCLDY    59  54  82 E7        29.84F
PINE RIVER     CLOUDY    61  59  94 E12       29.84F
BRAINERD       CLOUDY    62  59  90 SE10      29.82F
STAPLES        CLOUDY    63  59  88 SE12      29.78F
LONG PRAIRIE   LGT RAIN  63  61  94 SE17      29.79S
LITTLE FALLS   MOCLDY    64  59  82 SE13      29.80S
LITCHFIELD     RAIN      68  64  88 SE7       29.81S
BUFFALO        CLOUDY    68  60  75 SE10      29.84S
MAPLE LAKE     CLOUDY    68  63  84 SE8       29.83S
$$
MNZ037-044-045-052-053-070300-
   East Central Minnesota

CITY           SKY/WX    TMP DP  RH WIND       PRES   REMARKS
PRINCETON      MOCLDY    68  61  77 SE13G20   29.84S
MORA           MOCLDY    64  54  68 SE13G18   29.88S
CAMBRIDGE      CLOUDY    70  57  64 SE8G18    29.85R
RUSH CITY      CLOUDY    67  58  71 SE9G21    29.88R
MOOSE LAKE     CLOUDY    52  37  58 NE5       29.88F
HINCKLEY       FAIR      70  59  68 SE12G18   29.88S
CLOQUET        CLOUDY    54  36  50 E9        29.92S
MCGREGOR       CLOUDY    54  50  87 E13       29.88S
$$
MNZ071>073-080-081-089-090-097-098-070300-
   Southwest Minnesota

CITY           SKY/WX    TMP DP  RH WIND       PRES   REMARKS
MONTEVIDEO     MOCLDY    68  59  73 S10G17    29.75S
GRANITE FALLS  PTCLDY    67  59  75 SE15      29.77R
CANBY          MOCLDY    67  59  76 SE13G20   29.73S
MARSHALL       CLOUDY    66  57  72 S18       29.74S
REDWOOD FALLS  MOCLDY    69  60  73 S16       29.78R
OLIVIA         MOCLDY    68  59  73 SE8       29.77F
PIPESTONE      MOCLDY    66  61  82 S16G23    29.74S
WORTHINGTON    CLOUDY    66  55  68 S14       29.78S
JACKSON        PTCLDY    68  59  73 SE15      29.81S
TRACY          MOCLDY    69  60  73 S13G21    29.76S
SLAYTON        CLOUDY    65  60  82 SE18      29.77S
$$
MNZ065>067-074>077-082>085-091>093-070300-
   South Central Minnesota

CITY           SKY/WX    TMP DP  RH WIND       PRES   REMARKS
MANKATO        MOCLDY    72  55  56 S16G24    29.84R
NEW ULM        RAIN      66  63  88 S5        29.81S
ST JAMES       MOCLDY    70  59  68 SE15G22   29.82S
FAIRMONT       MOCLDY    70  37  30 SE16      29.83R
GLENCOE        CLOUDY    70  64  83 SE8       29.81F
FARIBAULT      MOCLDY    70  61  73 SE13      29.87S
OWATONNA       MOCLDY    68  61  77 SE15G22   29.87S
WASECA         MOCLDY    70  59  68 SE13      29.87S
ALBERT LEA     MOCLDY    68  57  68 S15       29.88R
$$
MNZ078>079-086>088-094>096-070300-
   Southeast Minnesota

CITY           SKY/WX    TMP DP  RH WIND       PRES   REMARKS
ROCHESTER      CLOUDY    65  59  81 S14       29.92S
RED WING       CLOUDY    66  61  82 SE10      29.89S
STANTON        CLOUDY    69  60  74 SE12      29.86S
DODGE CENTER   CLOUDY    64  61  88 S10       29.90S
WINONA         CLOUDY    64  59  82 SE6       29.93S
AUSTIN         CLOUDY    66  61  82 SE7       29.90R
PRESTON        CLOUDY    64  58  80 S12       29.93S
$$
ABBREVIATIONS USED IN REMARKS
   TC - TEMPERATURES IN CELSIUS
  WCI - WIND CHILL INDEX
   HX - HEAT INDEX
  VSB - VISIBILITY
$$


USA.gov is the U.S. government's official web portal to all federal, state and local government web resources and services.